START_TIME,STEP,MOV.,M29,t_acc.,H22,t_acc.,H26,t_acc.,H30,t_acc.
1989-08-26T21:00:32.520 ,0,0,0.,24.0,0.,24.0,0.,24.0,0.,24.0
1989-08-26T21:00:56.520 ,1,1,0.,24.0,0.,24.0,0.,24.0,0.,24.0
1989-08-26T21:01:20.520 ,1,0,0.,24.0,0.,24.0,0.,24.0,0.,24.0
1989-08-26T21:01:44.520 ,2,1,0.,24.0,0.,24.0,0.,24.0,0.,24.0
1989-08-26T21:02:08.520 ,2,0,0.,24.0,0.,24.0,0.,24.0,0.,24.0
1989-08-26T21:02:32.520 ,3,1,0.,24.0,0.,24.0,0.,24.0,0.,24.0
1989-08-26T21:02:56.520 ,3,0,0.,24.0,0.,24.0,0.,24.0,0.,24.0
1989-08-26T21:03:20.520 ,4,1,0.,24.0,0.,24.0,0.,24.0,0.,24.0
1989-08-26T21:03:44.520 ,4,0,0.,24.0,0.,24.0,0.,24.0,0.,24.0
1989-08-26T21:04:08.520 ,5,1,0.,24.0,0.,24.0,0.,24.0,0.,24.0
1989-08-26T21:04:32.520 ,5,0,0.,24.0,0.,24.0,0.,24.0,0.,24.0
1989-08-26T21:04:56.520 ,6,1,0.,24.0,0.,24.0,0.,24.0,0.,24.0
1989-08-26T21:05:20.520 ,6,0,0.,24.0,0.,24.0,0.,24.0,0.,24.0
1989-08-26T21:05:44.520 ,7,1,0.,24.0,0.,24.0,0.,24.0,0.,24.0
1989-08-26T21:06:08.520 ,7,0,0.,24.0,0.,24.0,0.,24.0,0.,24.0
1989-08-26T21:06:32.520 ,7,1,0.,24.0,0.,24.0,0.,24.0,0.,24.0
1989-08-26T21:06:56.520 ,7,0,0.,24.0,0.,24.0,0.,24.0,0.,24.0
1989-08-26T21:07:20.520 ,6,1,0.,24.0,0.,24.0,0.,24.0,0.,24.0
1989-08-26T21:07:44.520 ,6,0,0.,24.0,0.,24.0,0.,24.0,0.,24.0
1989-08-26T21:08:08.520 ,5,1,0.,24.0,0.,24.0,0.,24.0,0.,24.0
1989-08-26T21:08:32.520 ,5,0,0.,24.0,0.,24.0,0.,24.0,0.,24.0
1989-08-26T21:08:56.520 ,4,1,0.,24.0,0.,24.0,0.,24.0,0.,24.0
1989-08-26T21:09:20.520 ,4,0,0.,24.0,0.,24.0,0.,24.0,0.,24.0
1989-08-26T21:09:44.520 ,3,1,0.,24.0,0.,24.0,0.,24.0,0.,24.0
1989-08-26T21:10:08.520 ,3,0,0.,24.0,0.,24.0,0.,24.0,0.,24.0
1989-08-26T21:10:32.520 ,2,1,0.,24.0,0.,24.0,0.,24.0,0.,24.0
1989-08-26T21:10:56.520 ,2,0,0.,24.0,0.,24.0,0.,24.0,0.,24.0
1989-08-26T21:11:20.520 ,1,1,0.,24.0,0.,24.0,0.,24.0,0.,24.0
1989-08-26T21:11:44.520 ,1,0,0.,24.0,0.,24.0,0.,24.0,0.,24.0
1989-08-26T21:12:08.520 ,0,1,0.,24.0,0.,24.0,0.,24.0,0.,24.0
1989-08-26T21:12:32.520 ,0,0,0.,24.0,0.,24.0,0.,24.0,0.,24.0
1989-08-26T21:12:56.520 ,0,1,0.,24.0,0.,24.0,0.,24.0,0.,24.0
1989-08-26T21:13:20.520 ,0,0,0.,24.0,0.,24.0,0.,24.0,0.,24.0
1989-08-26T21:13:44.520 ,1,1,0.,24.0,0.,24.0,0.,24.0,0.,24.0
1989-08-26T21:14:08.520 ,0,0,0.,24.0,0.,24.0,0.,24.0,0.,24.0
1989-08-26T21:14:50.520 ,0,0,,0,,0,,0,,0
1989-08-26T21:14:56.520 ,0,0,0.,24.0,0.,24.0,0.,24.0,0.,24.0
1989-08-26T21:15:20.520 ,3,1,0.,24.0,0.,24.0,0.,24.0,0.,24.0
1989-08-26T21:15:44.520 ,3,0,0.,24.0,0.,24.0,0.,24.0,0.,24.0
1989-08-26T21:16:08.520 ,4,1,0.,24.0,0.,24.0,0.,24.0,0.,24.0
1989-08-26T21:16:32.520 ,4,0,0.,24.0,0.,24.0,0.,24.0,0.,24.0
1989-08-26T21:16:56.520 ,5,1,0.,24.0,0.,24.0,0.,24.0,0.,24.0
1989-08-26T21:17:20.520 ,5,0,0.,24.0,0.,24.0,0.,24.0,0.,24.0
1989-08-26T21:17:44.520 ,6,1,0.,24.0,0.,24.0,0.,24.0,0.,24.0
1989-08-26T21:18:08.520 ,6,0,0.,24.0,0.,24.0,0.,24.0,0.,24.0
1989-08-26T21:18:32.520 ,7,1,0.,24.0,0.,24.0,0.,24.0,0.,24.0
1989-08-26T21:18:56.520 ,7,0,0.,24.0,0.,24.0,0.,24.0,0.,24.0
1989-08-26T21:19:20.520 ,7,1,0.,24.0,0.,24.0,0.,24.0,0.,24.0
1989-08-26T21:19:44.520 ,7,0,0.,24.0,0.,24.0,0.,24.0,0.,24.0
1989-08-26T21:20:08.520 ,6,1,0.,24.0,0.,24.0,0.,24.0,0.,24.0
1989-08-26T21:20:32.520 ,6,0,0.,24.0,0.,24.0,0.,24.0,0.,24.0
1989-08-26T21:20:56.520 ,5,1,0.,24.0,0.,24.0,0.,24.0,0.,24.0
1989-08-26T21:21:20.520 ,5,0,0.,24.0,0.,24.0,0.,24.0,0.,24.0
1989-08-26T21:21:44.520 ,4,1,0.,24.0,0.,24.0,0.,24.0,0.,24.0
1989-08-26T21:22:08.520 ,4,0,0.,24.0,0.,24.0,0.,24.0,0.,24.0
1989-08-26T21:22:32.520 ,0,0,,0,,0,,0,,0
1989-08-26T21:22:56.520 ,0,0,,0,,0,,0,,0
1989-08-26T21:24:07.320 ,0,0,,0,,0,,0,,0
1989-08-26T21:24:08.520 ,0,0,0.,24.0,0.,24.0,0.,24.0,0.,24.0
1989-08-26T21:24:32.520 ,0,0,0.,24.0,0.,24.0,0.,24.0,0.,24.0
1989-08-26T21:24:56.520 ,0,1,0.,24.0,0.,24.0,0.,24.0,0.,24.0
1989-08-26T21:25:20.520 ,0,0,0.,24.0,0.,24.0,0.,24.0,0.,24.0
1989-08-26T21:25:44.520 ,0,1,0.,24.0,0.,24.0,0.,24.0,0.,24.0
1989-08-26T21:26:08.520 ,0,0,0.,24.0,0.,24.0,0.,24.0,0.,24.0
1989-08-26T21:26:32.520 ,1,1,0.,24.0,0.,24.0,0.,24.0,0.,24.0
1989-08-26T21:26:56.520 ,1,0,0.,24.0,0.,24.0,0.,24.0,0.,24.0
1989-08-26T21:27:20.520 ,2,1,0.,24.0,0.,24.0,0.,24.0,0.,24.0
1989-08-26T21:27:44.520 ,2,0,0.,24.0,0.,24.0,0.,24.0,0.,24.0
1989-08-26T21:28:08.520 ,3,1,0.,24.0,0.,24.0,0.,24.0,0.,24.0
1989-08-26T21:28:32.520 ,3,0,0.,24.0,0.,24.0,0.,24.0,0.,24.0
1989-08-26T21:28:56.520 ,4,1,0.,24.0,0.,24.0,0.,24.0,0.,24.0
1989-08-26T21:29:20.520 ,4,0,0.,24.0,0.,24.0,0.,24.0,0.,24.0
1989-08-26T21:29:44.520 ,5,1,0.,24.0,0.,24.0,0.,24.0,0.,24.0
1989-08-26T21:30:08.520 ,5,0,0.,24.0,0.,24.0,0.,24.0,0.,24.0
1989-08-26T21:30:32.520 ,6,1,0.,24.0,0.,24.0,0.,24.0,0.,24.0
1989-08-26T21:30:56.520 ,6,0,0.,24.0,0.,24.0,0.,24.0,0.,24.0
1989-08-26T21:31:20.520 ,7,1,0.,24.0,0.,24.0,0.,24.0,0.,24.0
1989-08-26T21:31:44.520 ,7,0,0.,24.0,0.,24.0,0.,24.0,0.,24.0
1989-08-26T21:32:08.520 ,7,1,0.,24.0,0.,24.0,0.,24.0,0.,24.0
1989-08-26T21:32:32.520 ,7,0,0.,24.0,0.,24.0,0.,24.0,0.,24.0
1989-08-26T21:32:56.520 ,6,1,0.,24.0,0.,24.0,0.,24.0,0.,24.0
1989-08-26T21:33:20.520 ,6,0,0.,24.0,0.,24.0,0.,24.0,0.,24.0
1989-08-26T21:33:44.520 ,5,1,0.,24.0,0.,24.0,0.,24.0,0.,24.0
1989-08-26T21:34:08.520 ,5,0,0.,24.0,0.,24.0,0.,24.0,0.,24.0
1989-08-26T21:34:32.520 ,4,1,0.,24.0,0.,24.0,0.,24.0,0.,24.0
1989-08-26T21:34:56.520 ,4,0,0.,24.0,0.,24.0,0.,24.0,0.,24.0
1989-08-26T21:35:20.520 ,3,1,0.,24.0,0.,24.0,0.,24.0,0.,24.0
1989-08-26T21:35:44.520 ,3,0,0.,24.0,0.,24.0,0.,24.0,0.,24.0
1989-08-26T21:36:08.520 ,2,1,0.,24.0,0.,24.0,0.,24.0,0.,24.0
1989-08-26T21:36:32.520 ,2,0,0.,24.0,0.,24.0,0.,24.0,0.,24.0
1989-08-26T21:36:56.520 ,1,1,0.,24.0,0.,24.0,0.,24.0,0.,24.0
1989-08-26T21:37:20.520 ,1,0,0.,24.0,0.,24.0,0.,24.0,0.,24.0
1989-08-26T21:37:44.520 ,0,1,0.,24.0,0.,24.0,0.,24.0,0.,24.0
1989-08-26T21:38:08.520 ,0,0,0.,24.0,0.,24.0,0.,24.0,0.,24.0
1989-08-26T21:38:32.520 ,0,1,0.,24.0,0.,24.0,0.,24.0,0.,24.0
1989-08-26T21:38:56.520 ,0,0,0.,24.0,0.,24.0,0.,24.0,0.,24.0
1989-08-26T21:39:20.520 ,1,1,0.,24.0,0.,24.0,0.,24.0,0.,24.0
1989-08-26T21:39:44.520 ,1,0,0.,24.0,0.,24.0,0.,24.0,0.,24.0
1989-08-26T21:40:08.520 ,2,1,0.,24.0,0.,24.0,0.,24.0,0.,24.0
1989-08-26T21:40:32.520 ,2,0,0.,24.0,0.,24.0,0.,24.0,0.,24.0
1989-08-26T21:40:56.520 ,3,1,0.,24.0,0.,24.0,0.,24.0,0.,24.0
1989-08-26T21:41:20.520 ,3,0,0.,24.0,0.,24.0,0.,24.0,0.,24.0
1989-08-26T21:41:44.520 ,4,1,0.,24.0,0.,24.0,0.,24.0,0.,24.0
1989-08-26T21:42:08.520 ,4,0,0.,24.0,0.,24.0,0.,24.0,0.,24.0
1989-08-26T21:42:32.520 ,5,1,0.,24.0,0.,24.0,0.,24.0,0.,24.0
1989-08-26T21:42:56.520 ,5,0,0.,24.0,0.,24.0,0.,24.0,0.,24.0
1989-08-26T21:43:20.520 ,6,1,0.,24.0,0.,24.0,0.,24.0,0.,24.0
1989-08-26T21:43:44.520 ,6,0,0.,24.0,0.,24.0,0.,24.0,0.,24.0
1989-08-26T21:44:08.520 ,7,1,0.,24.0,0.,24.0,0.,24.0,0.,24.0
1989-08-26T21:44:32.520 ,7,0,0.,24.0,0.,24.0,0.,24.0,0.,24.0
1989-08-26T21:44:56.520 ,7,1,0.,24.0,0.,24.0,0.,24.0,0.,24.0
1989-08-26T21:45:20.520 ,7,0,0.,24.0,0.,24.0,0.,24.0,0.,24.0
1989-08-26T21:45:44.520 ,6,1,0.,24.0,0.,24.0,0.,24.0,0.,24.0
1989-08-26T21:46:08.520 ,6,0,0.,24.0,0.,24.0,0.,24.0,0.,24.0
1989-08-26T21:46:32.520 ,5,1,0.,24.0,0.,24.0,0.,24.0,0.,24.0
1989-08-26T21:46:56.520 ,5,0,0.,24.0,0.,24.0,0.,24.0,0.,24.0
1989-08-26T21:47:20.520 ,4,1,0.,24.0,0.,24.0,0.,24.0,0.,24.0
1989-08-26T21:47:44.520 ,4,0,0.,24.0,0.,24.0,0.,24.0,0.,24.0
1989-08-26T21:48:08.520 ,3,1,0.,24.0,0.,24.0,0.,24.0,0.,24.0
1989-08-26T21:48:32.520 ,3,0,0.,24.0,0.,24.0,0.,24.0,0.,24.0
1989-08-26T21:48:56.520 ,2,1,0.,24.0,0.,24.0,0.,24.0,0.,24.0
1989-08-26T21:49:20.520 ,2,0,0.,24.0,0.,24.0,0.,24.0,0.,24.0
1989-08-26T21:49:44.520 ,1,1,0.,24.0,0.,24.0,0.,24.0,0.,24.0
1989-08-26T21:50:08.520 ,1,0,0.,24.0,0.,24.0,0.,24.0,0.,24.0
1989-08-26T21:50:32.520 ,0,1,0.,24.0,0.,24.0,0.,24.0,0.,24.0
1989-08-26T21:50:56.520 ,0,0,0.,24.0,0.,24.0,0.,24.0,0.,24.0
1989-08-26T21:51:20.520 ,0,1,0.,24.0,0.,24.0,0.,24.0,0.,24.0
1989-08-26T21:51:44.520 ,0,0,0.,24.0,0.,24.0,0.,24.0,0.,24.0
1989-08-26T21:52:08.520 ,1,1,0.,24.0,0.,24.0,0.,24.0,0.,24.0
1989-08-26T21:52:32.520 ,1,0,0.,24.0,0.,24.0,0.,24.0,0.,24.0
1989-08-26T21:52:56.520 ,2,1,0.,24.0,0.,24.0,0.,24.0,0.,24.0
1989-08-26T21:53:20.520 ,2,0,0.,24.0,0.,24.0,0.,24.0,0.,24.0
1989-08-26T21:53:44.520 ,3,1,0.,24.0,0.,24.0,0.,24.0,0.,24.0
1989-08-26T21:54:08.520 ,3,0,0.,24.0,0.,24.0,0.,24.0,0.,24.0
1989-08-26T21:54:32.520 ,4,1,0.,24.0,0.,24.0,0.,24.0,0.,24.0
1989-08-26T21:54:56.520 ,4,0,0.,24.0,0.,24.0,0.,24.0,0.,24.0
1989-08-26T21:55:20.520 ,5,1,0.,24.0,0.,24.0,0.,24.0,0.,24.0
1989-08-26T21:55:44.520 ,5,0,0.,24.0,0.,24.0,0.,24.0,0.,24.0
1989-08-26T21:56:08.520 ,6,1,0.,24.0,0.,24.0,0.,24.0,0.,24.0
1989-08-26T21:56:32.520 ,6,0,0.,24.0,0.,24.0,0.,24.0,0.,24.0
1989-08-26T21:56:56.520 ,7,1,0.,24.0,0.,24.0,0.,24.0,0.,24.0
1989-08-26T21:57:20.520 ,7,0,0.,24.0,0.,24.0,0.,24.0,0.,24.0
1989-08-26T21:57:44.520 ,7,1,0.,24.0,0.,24.0,0.,24.0,0.,24.0
1989-08-26T21:58:08.520 ,7,0,0.,24.0,0.,24.0,0.,24.0,0.,24.0
1989-08-26T21:58:32.520 ,6,1,0.,24.0,0.,24.0,0.,24.0,0.,24.0
1989-08-26T21:58:56.520 ,6,0,0.,24.0,0.,24.0,0.,24.0,0.,24.0
1989-08-26T21:59:20.520 ,5,1,0.,24.0,0.,24.0,0.,24.0,0.,24.0
1989-08-26T21:59:44.520 ,5,0,0.,24.0,0.,24.0,0.,24.0,0.,24.0
1989-08-26T22:00:08.520 ,4,1,0.,24.0,0.,24.0,0.,24.0,0.,24.0
1989-08-26T22:00:32.520 ,4,0,0.,24.0,0.,24.0,0.,24.0,0.,24.0
1989-08-26T22:00:56.520 ,3,1,0.,24.0,0.,24.0,0.,24.0,0.,24.0
1989-08-26T22:01:20.520 ,3,0,0.,24.0,0.,24.0,0.,24.0,0.,24.0
1989-08-26T22:01:44.520 ,2,1,0.,24.0,0.,24.0,0.,24.0,0.,24.0
1989-08-26T22:02:08.520 ,2,0,0.,24.0,0.,24.0,0.,24.0,0.,24.0
1989-08-26T22:02:32.520 ,1,1,0.,24.0,0.,24.0,0.,24.0,0.,24.0
1989-08-26T22:02:56.520 ,1,0,0.,24.0,0.,24.0,0.,24.0,0.,24.0
1989-08-26T22:03:20.520 ,0,1,0.,24.0,0.,24.0,0.,24.0,0.,24.0
1989-08-26T22:03:44.520 ,0,0,0.,24.0,0.,24.0,0.,24.0,0.,24.0
1989-08-26T22:04:08.510 ,0,1,0.,24.0,0.,24.0,0.,24.0,0.,24.0
1989-08-26T22:04:32.510 ,0,0,0.,24.0,0.,24.0,0.,24.0,0.,24.0
1989-08-26T22:04:56.510 ,1,1,0.,24.0,0.,24.0,0.,24.0,0.,24.0
1989-08-26T22:05:20.510 ,1,0,0.,24.0,0.,24.0,0.,24.0,0.,24.0
1989-08-26T22:05:44.510 ,2,1,0.,24.0,0.,24.0,0.,24.0,0.,24.0
1989-08-26T22:06:08.510 ,2,0,0.,24.0,0.,24.0,0.,24.0,0.,24.0
1989-08-26T22:06:32.510 ,3,1,0.,24.0,0.,24.0,0.,24.0,0.,24.0
1989-08-26T22:06:56.510 ,3,0,0.,24.0,0.,24.0,0.,24.0,0.,24.0
1989-08-26T22:07:20.510 ,4,1,0.,24.0,0.,24.0,0.,24.0,0.,24.0
1989-08-26T22:07:44.510 ,4,0,0.,24.0,0.,24.0,0.,24.0,0.,24.0
1989-08-26T22:08:08.510 ,5,1,0.,24.0,0.,24.0,0.,24.0,0.,24.0
1989-08-26T22:08:32.520 ,5,0,0.,24.0,0.,24.0,0.,24.0,0.,24.0
1989-08-26T22:08:56.520 ,6,1,0.,24.0,0.,24.0,0.,24.0,0.,24.0
1989-08-26T22:09:20.520 ,6,0,0.,24.0,0.,24.0,0.,24.0,0.,24.0
1989-08-26T22:09:44.520 ,7,1,0.,24.0,0.,24.0,0.,24.0,0.,24.0
1989-08-26T22:10:08.520 ,7,0,0.,24.0,0.,24.0,0.,24.0,0.,24.0
1989-08-26T22:10:32.520 ,7,1,0.,24.0,0.,24.0,0.,24.0,0.,24.0
1989-08-26T22:10:56.520 ,7,0,0.,24.0,0.,24.0,0.,24.0,0.,24.0
1989-08-26T22:11:20.520 ,6,1,0.,24.0,0.,24.0,0.,24.0,0.,24.0
1989-08-26T22:11:44.520 ,6,0,0.,24.0,0.,24.0,0.,24.0,0.,24.0
1989-08-26T22:12:08.520 ,5,1,0.,24.0,0.,24.0,0.,24.0,0.,24.0
1989-08-26T22:12:32.520 ,5,0,0.,24.0,0.,24.0,0.,24.0,0.,24.0
1989-08-26T22:12:56.520 ,4,1,0.,24.0,0.,24.0,0.,24.0,0.,24.0
1989-08-26T22:13:20.520 ,4,0,0.,24.0,0.,24.0,0.,24.0,0.,24.0
1989-08-26T22:13:44.520 ,3,1,0.,24.0,0.,24.0,0.,24.0,0.,24.0
1989-08-26T22:14:08.520 ,3,0,0.,24.0,0.,24.0,0.,24.0,0.,24.0
1989-08-26T22:14:32.520 ,2,1,0.,24.0,0.,24.0,0.,24.0,0.,24.0
1989-08-26T22:14:56.520 ,2,0,0.,24.0,0.,24.0,0.,24.0,0.,24.0
1989-08-26T22:15:20.510 ,1,1,0.,24.0,0.,24.0,0.,24.0,0.,24.0
1989-08-26T22:15:44.510 ,1,0,0.,24.0,0.,24.0,0.,24.0,0.,24.0
1989-08-26T22:16:08.510 ,0,1,0.,24.0,0.,24.0,0.,24.0,0.,24.0
1989-08-26T22:16:32.510 ,0,0,0.,24.0,0.,24.0,0.,24.0,0.,24.0
1989-08-26T22:16:56.510 ,0,1,0.,24.0,0.,24.0,0.,24.0,0.,24.0
1989-08-26T22:17:20.510 ,0,0,0.,24.0,0.,24.0,0.,24.0,0.,24.0
1989-08-26T22:17:44.510 ,1,1,0.,24.0,0.,24.0,0.,24.0,0.,24.0
1989-08-26T22:18:08.510 ,1,0,0.,24.0,0.,24.0,0.,24.0,0.,24.0
1989-08-26T22:18:32.510 ,2,1,0.,24.0,0.,24.0,0.,24.0,0.,24.0
1989-08-26T22:18:56.510 ,2,0,0.,24.0,0.,24.0,0.,24.0,0.,24.0
1989-08-26T22:19:20.510 ,3,1,0.,24.0,0.,24.0,0.,24.0,0.,24.0
1989-08-26T22:19:44.510 ,3,0,0.,24.0,0.,24.0,0.,24.0,0.,24.0
1989-08-26T22:20:08.510 ,4,1,0.,24.0,0.,24.0,0.,24.0,0.,24.0
1989-08-26T22:20:32.510 ,4,0,0.,24.0,0.,24.0,0.,24.0,0.,24.0
1989-08-26T22:20:56.510 ,5,1,0.,24.0,0.,24.0,0.,24.0,0.,24.0
1989-08-26T22:21:20.510 ,5,0,0.,24.0,0.,24.0,0.,24.0,0.,24.0
1989-08-26T22:21:44.510 ,6,1,0.,24.0,0.,24.0,0.,24.0,0.,24.0
1989-08-26T22:22:08.510 ,6,0,0.,24.0,0.,24.0,0.,24.0,0.,24.0
1989-08-26T22:22:32.510 ,7,1,0.,24.0,0.,24.0,0.,24.0,0.,24.0
1989-08-26T22:22:56.510 ,7,0,0.,24.0,0.,24.0,0.,24.0,0.,24.0
1989-08-26T22:23:20.510 ,7,1,0.,24.0,0.,24.0,0.,24.0,0.,24.0
1989-08-26T22:23:44.510 ,7,0,0.,24.0,0.,24.0,0.,24.0,0.,24.0
1989-08-26T22:24:08.510 ,6,1,0.,24.0,0.,24.0,0.,24.0,0.,24.0
1989-08-26T22:24:32.510 ,6,0,0.,24.0,0.,24.0,0.,24.0,0.,24.0
1989-08-26T22:24:56.510 ,5,1,0.,24.0,0.,24.0,0.,24.0,0.,24.0
1989-08-26T22:25:20.510 ,5,0,0.,24.0,0.,24.0,0.,24.0,0.,24.0
1989-08-26T22:25:44.510 ,4,1,0.,24.0,0.,24.0,0.,24.0,0.,24.0
1989-08-26T22:26:08.510 ,4,0,0.,24.0,0.,24.0,0.,24.0,0.,24.0
1989-08-26T22:26:32.510 ,3,1,0.,24.0,0.,24.0,0.,24.0,0.,24.0
1989-08-26T22:26:56.510 ,3,0,0.,24.0,0.,24.0,0.,24.0,0.,24.0
1989-08-26T22:27:20.510 ,2,1,0.,24.0,0.,24.0,0.,24.0,0.,24.0
1989-08-26T22:27:44.510 ,2,0,0.,24.0,0.,24.0,0.,24.0,0.,24.0
1989-08-26T22:28:08.510 ,1,1,0.,24.0,0.,24.0,0.,24.0,0.,24.0
1989-08-26T22:28:32.510 ,1,0,0.,24.0,0.,24.0,0.,24.0,0.,24.0
1989-08-26T22:28:56.510 ,0,1,0.,24.0,0.,24.0,0.,24.0,0.,24.0
1989-08-26T22:29:20.510 ,0,0,0.,24.0,0.,24.0,0.,24.0,0.,24.0
1989-08-26T22:29:44.510 ,0,1,0.,24.0,0.,24.0,0.,24.0,0.,24.0
1989-08-26T22:30:08.510 ,0,0,0.,24.0,0.,24.0,0.,24.0,0.,24.0
1989-08-26T22:30:32.510 ,1,1,0.,24.0,0.,24.0,0.,24.0,0.,24.0
1989-08-26T22:30:56.510 ,1,0,0.,24.0,0.,24.0,0.,24.0,0.,24.0
1989-08-26T22:31:20.510 ,2,1,0.,24.0,0.,24.0,0.,24.0,0.,24.0
1989-08-26T22:31:44.510 ,2,0,0.,24.0,0.,24.0,0.,24.0,0.,24.0
1989-08-26T22:32:08.510 ,3,1,0.,24.0,0.,24.0,0.,24.0,0.,24.0
1989-08-26T22:32:32.510 ,3,0,0.,24.0,0.,24.0,0.,24.0,0.,24.0
1989-08-26T22:32:56.510 ,4,1,0.,24.0,0.,24.0,0.,24.0,0.,24.0
1989-08-26T22:33:20.510 ,4,0,0.,24.0,0.,24.0,0.,24.0,0.,24.0
1989-08-26T22:33:44.510 ,5,1,0.,24.0,0.,24.0,0.,24.0,0.,24.0
1989-08-26T22:34:08.510 ,5,0,0.,24.0,0.,24.0,0.,24.0,0.,24.0
1989-08-26T22:34:32.510 ,6,1,0.,24.0,0.,24.0,0.,24.0,0.,24.0
1989-08-26T22:34:56.510 ,6,0,0.,24.0,0.,24.0,0.,24.0,0.,24.0
1989-08-26T22:35:20.510 ,7,1,0.,24.0,0.,24.0,0.,24.0,0.,24.0
1989-08-26T22:35:44.510 ,7,0,0.,24.0,0.,24.0,0.,24.0,0.,24.0
1989-08-26T22:36:08.510 ,7,1,0.,24.0,0.,24.0,0.,24.0,0.,24.0
1989-08-26T22:36:32.510 ,7,0,0.,24.0,0.,24.0,0.,24.0,0.,24.0
1989-08-26T22:36:56.510 ,6,1,0.,24.0,0.,24.0,0.,24.0,0.,24.0
1989-08-26T22:37:20.510 ,6,0,0.,24.0,0.,24.0,0.,24.0,0.,24.0
1989-08-26T22:37:44.510 ,5,1,0.,24.0,0.,24.0,0.,24.0,0.,24.0
1989-08-26T22:38:08.510 ,5,0,0.,24.0,0.,24.0,0.,24.0,0.,24.0
1989-08-26T22:38:32.510 ,4,1,0.,24.0,0.,24.0,0.,24.0,0.,24.0
1989-08-26T22:38:56.510 ,4,0,0.,24.0,0.,24.0,0.,24.0,0.,24.0
1989-08-26T22:39:20.510 ,3,1,0.,24.0,0.,24.0,0.,24.0,0.,24.0
1989-08-26T22:39:44.510 ,3,0,0.,24.0,0.,24.0,0.,24.0,0.,24.0
1989-08-26T22:40:08.510 ,2,1,0.,24.0,0.,24.0,0.,24.0,0.,24.0
1989-08-26T22:40:32.510 ,2,0,0.,24.0,0.,24.0,0.,24.0,0.,24.0
1989-08-26T22:40:56.510 ,1,1,0.,24.0,0.,24.0,0.,24.0,0.,24.0
1989-08-26T22:41:20.510 ,1,0,0.,24.0,0.,24.0,0.,24.0,0.,24.0
1989-08-26T22:41:44.510 ,0,1,0.,24.0,0.,24.0,0.,24.0,0.,24.0
1989-08-26T22:42:08.510 ,0,0,0.,24.0,0.,24.0,0.,24.0,0.,24.0
1989-08-26T22:42:32.510 ,0,1,0.,24.0,0.,24.0,0.,24.0,0.,24.0
1989-08-26T22:42:56.510 ,0,0,0.,24.0,0.,24.0,0.,24.0,0.,24.0
1989-08-26T22:43:20.510 ,1,1,0.,24.0,0.,24.0,0.,24.0,0.,24.0
1989-08-26T22:43:44.510 ,1,0,0.,24.0,0.,24.0,0.,24.0,0.,24.0
1989-08-26T22:44:08.510 ,2,1,0.,24.0,0.,24.0,0.,24.0,0.,24.0
1989-08-26T22:44:32.510 ,2,0,0.,24.0,0.,24.0,0.,24.0,0.,24.0
1989-08-26T22:44:56.510 ,3,1,0.,24.0,0.,24.0,0.,24.0,0.,24.0
1989-08-26T22:45:20.510 ,3,0,0.,24.0,0.,24.0,0.,24.0,0.,24.0
1989-08-26T22:45:44.510 ,4,1,0.,24.0,0.,24.0,0.,24.0,0.,24.0
1989-08-26T22:46:08.510 ,4,0,0.,24.0,0.,24.0,0.,24.0,0.,24.0
1989-08-26T22:46:32.510 ,5,1,0.,24.0,0.,24.0,0.,24.0,0.,24.0
1989-08-26T22:46:56.510 ,5,0,0.,24.0,0.,24.0,0.,24.0,0.,24.0
1989-08-26T22:47:20.510 ,6,1,0.,24.0,0.,24.0,0.,24.0,0.,24.0
1989-08-26T22:47:44.510 ,6,0,0.,24.0,0.,24.0,0.,24.0,0.,24.0
1989-08-26T22:48:08.510 ,7,1,0.,24.0,0.,24.0,0.,24.0,0.,24.0
1989-08-26T22:48:32.510 ,7,0,0.,24.0,0.,24.0,0.,24.0,0.,24.0
1989-08-26T22:48:56.510 ,7,1,0.,24.0,0.,24.0,0.,24.0,0.,24.0
1989-08-26T22:49:20.510 ,7,0,0.,24.0,0.,24.0,0.,24.0,0.,24.0
1989-08-26T22:49:44.510 ,6,1,0.,24.0,0.,24.0,0.,24.0,0.,24.0
1989-08-26T22:50:08.510 ,6,0,0.,24.0,0.,24.0,0.,24.0,0.,24.0
1989-08-26T22:50:32.510 ,5,1,0.,24.0,0.,24.0,0.,24.0,0.,24.0
1989-08-26T22:50:56.510 ,5,0,0.,24.0,0.,24.0,0.,24.0,0.,24.0
1989-08-26T22:51:20.510 ,4,1,0.,24.0,0.,24.0,0.,24.0,0.,24.0
1989-08-26T22:51:44.510 ,4,0,0.,24.0,0.,24.0,0.,24.0,0.,24.0
1989-08-26T22:52:08.510 ,3,1,0.,24.0,0.,24.0,0.,24.0,0.,24.0
1989-08-26T22:52:32.510 ,3,0,0.,24.0,0.,24.0,0.,24.0,0.,24.0
1989-08-26T22:52:56.510 ,2,1,0.,24.0,0.,24.0,0.,24.0,0.,24.0
1989-08-26T22:53:20.510 ,2,0,0.,24.0,0.,24.0,0.,24.0,0.,24.0
1989-08-26T22:53:44.510 ,1,1,0.,24.0,0.,24.0,0.,24.0,0.,24.0
1989-08-26T22:54:08.510 ,1,0,0.,24.0,0.,24.0,0.,24.0,0.,24.0
1989-08-26T22:54:32.510 ,0,1,0.,24.0,0.,24.0,0.,24.0,0.,24.0
1989-08-26T22:54:56.510 ,0,0,0.,24.0,0.,24.0,0.,24.0,0.,24.0
1989-08-26T22:55:20.510 ,0,1,0.,24.0,0.,24.0,0.,24.0,0.,24.0
1989-08-26T22:55:44.510 ,0,0,0.,24.0,0.,24.0,0.,24.0,0.,24.0
1989-08-26T22:56:08.510 ,1,1,0.,24.0,0.,24.0,0.,24.0,0.,24.0
1989-08-26T22:56:32.510 ,1,0,0.,24.0,0.,24.0,0.,24.0,0.,24.0
1989-08-26T22:56:56.510 ,2,1,0.,24.0,0.,24.0,0.,24.0,0.,24.0
1989-08-26T22:57:20.510 ,2,0,0.,24.0,0.,24.0,0.,24.0,0.,24.0
1989-08-26T22:57:44.510 ,3,1,0.,24.0,0.,24.0,0.,24.0,0.,24.0
1989-08-26T22:58:08.510 ,3,0,0.,24.0,0.,24.0,0.,24.0,0.,24.0
1989-08-26T22:58:32.510 ,4,1,0.,24.0,0.,24.0,0.,24.0,0.,24.0
1989-08-26T22:58:56.510 ,4,0,0.,24.0,0.,24.0,0.,24.0,0.,24.0
1989-08-26T22:59:20.510 ,5,1,0.,24.0,0.,24.0,0.,24.0,0.,24.0
1989-08-26T22:59:44.510 ,5,0,0.,24.0,0.,24.0,0.,24.0,0.,24.0
1989-08-26T23:00:08.510 ,6,1,0.,24.0,0.,24.0,0.,24.0,0.,24.0
1989-08-26T23:00:32.510 ,6,0,0.,24.0,0.,24.0,0.,24.0,0.,24.0
1989-08-26T23:00:56.510 ,7,1,0.,24.0,0.,24.0,0.,24.0,0.,24.0
1989-08-26T23:01:20.510 ,7,0,0.,24.0,0.,24.0,0.,24.0,0.,24.0
1989-08-26T23:01:44.510 ,7,1,0.,24.0,0.,24.0,0.,24.0,0.,24.0
1989-08-26T23:02:08.510 ,7,0,0.,24.0,0.,24.0,0.,24.0,0.,24.0
1989-08-26T23:02:32.510 ,6,1,0.,24.0,0.,24.0,0.,24.0,0.,24.0
1989-08-26T23:02:56.510 ,6,0,0.,24.0,0.,24.0,0.,24.0,0.,24.0
1989-08-26T23:03:20.510 ,5,1,0.,24.0,0.,24.0,0.,24.0,0.,24.0
1989-08-26T23:03:44.510 ,5,0,0.,24.0,0.,24.0,0.,24.0,0.,24.0
1989-08-26T23:04:08.510 ,4,1,0.,24.0,0.,24.0,0.,24.0,0.,24.0
1989-08-26T23:04:32.510 ,4,0,0.,24.0,0.,24.0,0.,24.0,0.,24.0
1989-08-26T23:04:56.510 ,3,1,0.,24.0,0.,24.0,0.,24.0,0.,24.0
1989-08-26T23:05:20.510 ,3,0,0.,24.0,0.,24.0,0.,24.0,0.,24.0
1989-08-26T23:05:44.510 ,2,1,0.,24.0,0.,24.0,0.,24.0,0.,24.0
1989-08-26T23:06:08.510 ,2,0,0.,24.0,0.,24.0,0.,24.0,0.,24.0
1989-08-26T23:06:32.510 ,1,1,0.,24.0,0.,24.0,0.,24.0,0.,24.0
1989-08-26T23:06:56.510 ,1,0,0.,24.0,0.,24.0,0.,24.0,0.,24.0
1989-08-26T23:07:20.510 ,0,1,0.,24.0,0.,24.0,0.,24.0,0.,24.0
1989-08-26T23:07:44.510 ,0,0,0.,24.0,0.,24.0,0.,24.0,0.,24.0
1989-08-26T23:08:08.510 ,0,1,0.,24.0,0.,24.0,0.,24.0,0.,24.0
1989-08-26T23:08:32.510 ,0,0,0.,24.0,0.,24.0,0.,24.0,0.,24.0
1989-08-26T23:08:56.510 ,1,1,0.,24.0,0.,24.0,0.,24.0,0.,24.0
1989-08-26T23:09:20.510 ,1,0,0.,24.0,0.,24.0,0.,24.0,0.,24.0
1989-08-26T23:09:44.510 ,2,1,0.,24.0,0.,24.0,0.,24.0,0.,24.0
1989-08-26T23:10:08.510 ,2,0,0.,24.0,0.,24.0,0.,24.0,0.,24.0
1989-08-26T23:10:32.510 ,3,1,0.,24.0,0.,24.0,0.,24.0,0.,24.0
1989-08-26T23:10:56.510 ,3,0,0.,24.0,0.,24.0,0.,24.0,0.,24.0
1989-08-26T23:11:20.510 ,4,1,0.,24.0,0.,24.0,0.,24.0,0.,24.0
1989-08-26T23:11:44.510 ,4,0,0.,24.0,0.,24.0,0.,24.0,0.,24.0
1989-08-26T23:12:08.510 ,5,1,0.,24.0,0.,24.0,0.,24.0,0.,24.0
1989-08-26T23:12:32.510 ,5,0,0.,24.0,0.,24.0,0.,24.0,0.,24.0
1989-08-26T23:12:56.510 ,6,1,0.,24.0,0.,24.0,0.,24.0,0.,24.0
1989-08-26T23:13:20.510 ,6,0,0.,24.0,0.,24.0,0.,24.0,0.,24.0
1989-08-26T23:13:44.510 ,7,1,0.,24.0,0.,24.0,0.,24.0,0.,24.0
1989-08-26T23:14:08.510 ,7,0,0.,24.0,0.,24.0,0.,24.0,0.,24.0
1989-08-26T23:14:32.510 ,7,1,0.,24.0,0.,24.0,0.,24.0,0.,24.0
1989-08-26T23:14:56.510 ,7,0,0.,24.0,0.,24.0,0.,24.0,0.,24.0
1989-08-26T23:15:20.510 ,6,1,0.,24.0,0.,24.0,0.,24.0,0.,24.0
1989-08-26T23:15:44.510 ,6,0,0.,24.0,0.,24.0,0.,24.0,0.,24.0
1989-08-26T23:16:08.510 ,5,1,0.,24.0,0.,24.0,0.,24.0,0.,24.0
1989-08-26T23:16:32.510 ,5,0,0.,24.0,0.,24.0,0.,24.0,0.,24.0
1989-08-26T23:16:56.510 ,4,1,0.,24.0,0.,24.0,0.,24.0,0.,24.0
1989-08-26T23:17:20.510 ,4,0,0.,24.0,0.,24.0,0.,24.0,0.,24.0
1989-08-26T23:17:44.510 ,3,1,0.,24.0,0.,24.0,0.,24.0,0.,24.0
1989-08-26T23:18:08.510 ,3,0,0.,24.0,0.,24.0,0.,24.0,0.,24.0
1989-08-26T23:18:32.510 ,2,1,0.,24.0,0.,24.0,0.,24.0,0.,24.0
1989-08-26T23:18:56.510 ,2,0,0.,24.0,0.,24.0,0.,24.0,0.,24.0
1989-08-26T23:19:20.510 ,1,1,0.,24.0,0.,24.0,0.,24.0,0.,24.0
1989-08-26T23:19:44.510 ,1,0,0.,24.0,0.,24.0,0.,24.0,0.,24.0
1989-08-26T23:20:08.510 ,0,1,0.,24.0,0.,24.0,0.,24.0,0.,24.0
1989-08-26T23:20:32.510 ,0,0,0.,24.0,0.,24.0,0.,24.0,0.,24.0
1989-08-26T23:20:56.510 ,0,1,0.,24.0,0.,24.0,0.,24.0,0.,24.0
1989-08-26T23:21:20.510 ,0,0,0.,24.0,0.,24.0,0.,24.0,0.,24.0
1989-08-26T23:21:44.510 ,1,1,0.,24.0,0.,24.0,0.,24.0,0.,24.0
1989-08-26T23:22:08.510 ,1,0,0.,24.0,0.,24.0,0.,24.0,0.,24.0
1989-08-26T23:22:32.510 ,2,1,0.,24.0,0.,24.0,0.,24.0,0.,24.0
1989-08-26T23:22:56.510 ,2,0,0.,24.0,0.,24.0,0.,24.0,0.,24.0
1989-08-26T23:23:20.510 ,3,1,0.,24.0,0.,24.0,0.,24.0,0.,24.0
1989-08-26T23:23:44.510 ,3,0,0.,24.0,0.,24.0,0.,24.0,0.,24.0
1989-08-26T23:24:08.510 ,4,1,0.,24.0,0.,24.0,0.,24.0,0.,24.0
1989-08-26T23:24:32.510 ,4,0,0.,24.0,0.,24.0,0.,24.0,0.,24.0
1989-08-26T23:24:56.510 ,5,1,0.,24.0,0.,24.0,0.,24.0,0.,24.0
1989-08-26T23:25:20.510 ,5,0,0.,24.0,0.,24.0,0.,24.0,0.,24.0
1989-08-26T23:25:44.510 ,6,1,0.,24.0,0.,24.0,0.,24.0,0.,24.0
1989-08-26T23:26:08.510 ,6,0,0.,24.0,0.,24.0,0.,24.0,0.,24.0
1989-08-26T23:26:32.510 ,7,1,0.,24.0,0.,24.0,0.,24.0,0.,24.0
1989-08-26T23:26:56.510 ,7,0,0.,24.0,0.,24.0,0.,24.0,0.,24.0
1989-08-26T23:27:20.510 ,7,1,0.,24.0,0.,24.0,0.,24.0,0.,24.0
1989-08-26T23:27:44.510 ,7,0,0.,24.0,0.,24.0,0.,24.0,0.,24.0
1989-08-26T23:28:08.510 ,6,1,0.,24.0,0.,24.0,0.,24.0,0.,24.0
1989-08-26T23:28:32.510 ,6,0,0.,24.0,0.,24.0,0.,24.0,0.,24.0
1989-08-26T23:28:56.510 ,5,1,0.,24.0,0.,24.0,0.,24.0,0.,24.0
1989-08-26T23:29:20.510 ,5,0,0.,24.0,0.,24.0,0.,24.0,0.,24.0
1989-08-26T23:29:44.510 ,4,1,0.,24.0,0.,24.0,0.,24.0,0.,24.0
1989-08-26T23:30:08.510 ,4,0,0.,24.0,0.,24.0,0.,24.0,0.,24.0
1989-08-26T23:30:32.510 ,3,1,0.,24.0,0.,24.0,0.,24.0,0.,24.0
1989-08-26T23:30:56.510 ,3,0,0.,24.0,0.,24.0,0.,24.0,0.,24.0
1989-08-26T23:31:20.510 ,2,1,0.,24.0,0.,24.0,0.,24.0,0.,24.0
1989-08-26T23:31:44.510 ,2,0,0.,24.0,0.,24.0,0.,24.0,0.,24.0
1989-08-26T23:32:08.510 ,1,1,0.,24.0,0.,24.0,0.,24.0,0.,24.0
1989-08-26T23:32:32.510 ,1,0,0.,24.0,0.,24.0,0.,24.0,0.,24.0
1989-08-26T23:32:56.510 ,0,1,0.,24.0,0.,24.0,0.,24.0,0.,24.0
1989-08-26T23:33:20.510 ,0,0,0.,24.0,0.,24.0,0.,24.0,0.,24.0
1989-08-26T23:33:44.510 ,0,1,0.,24.0,0.,24.0,0.,24.0,0.,24.0
1989-08-26T23:34:08.510 ,0,0,0.,24.0,0.,24.0,0.,24.0,0.,24.0
1989-08-26T23:34:32.510 ,1,1,0.,24.0,0.,24.0,0.,24.0,0.,24.0
1989-08-26T23:34:56.510 ,1,0,0.,24.0,0.,24.0,0.,24.0,0.,24.0
1989-08-26T23:35:20.510 ,2,1,0.,24.0,0.,24.0,0.,24.0,0.,24.0